Погода Марково

Погода Марково : погода сейчас, прогноз погоды и архив. Всё, что Вы хотите узнать о погоде Марково!

Хотите узнать прогноз погоды Марково? Тогда Вам сюда: Погода Марково

Поиск расширенной информации на нашем сайте:

Другие новости

Новости СМИ2

Главная страница сайта

Новости сайта

03.07.2017

Напоминаем, что на нашем специализированном сайте Метеоцентр.Азия вы можете получить высокодетализированные автоматические прогнозы погоды по пунктам России, СНГ и мира в авиационном формате (включающие направление и скорость ветра, видимость, явления погоды, количество и форму облачности, нижнюю и верхнюю границу облачности).


Погода Марково - сегодня

Время (UTC), дата Ветер
(°,м/с) 
Видим.   Явления Облачность Т
(°С)
Тd
(°С)
f(%) Тe
(°С)
Pmin
(гПа)
dP
(гПа)
Po
(мм)
O2
(г/м3)
Тmin Tmax R s Состояние
почвы
00 21.09.17 150 (ЮВ) 1{02}  0500 м  туман  10/10 200 м 
[St]
+0 -0.3 98 +1  1023.2  -0.4  765  308           
03 21.09.17 180 (Ю) 1{04}  20000 м  {туман}  3/0 верхняя 
[Ci fib]
+8.1 +0.9 60 +9  1021.8  -1.2  764  299           
06 21.09.17 120 (ЮВ) 1{03}  20000 м  {туман}  6/0 верхняя 
[Ci fib]
+8.7 +0.9 58 +10  1021.2  -0.6  764  298    +9.4       
09 21.09.17 тихо () {02}  4000 м  дымка  6/0 верхняя 
[Ci fib]
-2.2 -2.8 96 -2  1021.3  764  311           
12 21.09.17 тихо () {02}  4000 м  дымка  8/0 верхняя 
[Ci fib]
-2.6 -2.9 98 -3  1020.9  -0.4  763  311           
15 21.09.17 210 (ЮЗ) 1{02}  4000 м  дымка  4/0 верхняя 
[Ci fib]
-3.3 -3.6 98 -3  1020.7  -0.3  763  312           
18 21.09.17 тихо () {02}  20000 м    10/3 1000 м средняя 
[Sc|Ac As]
-2.4 -2.7 98 -2  1020.3  -0.3  763  310  -4.5        замёрзшая 
21 21.09.17 тихо () {02}  20000 м    8/0 средняя 
[Ac trans]
+1.5 +1 96 +2  1020.2  -0.1  763  306           
00 22.09.17 200 (Ю) 2{07}  20000 м    10/10 1000 м 
[Sc]
+9.9 +4.5 69 +10  1019.5  -0.6  762  296           
03 22.09.17 240 (ЮЗ) 4{07}  20000 м    8/3 1000 м средняя, верхняя 
[Sc|Ac trans|Ci fib]
+12.6 +4.3 57 +12  1018.4  -1.1  762  293           
06 22.09.17 210 (ЮЗ) 3{08}  20000 м    6/4 1000 м средняя 
[Cu Sc|Ac trans]
+10.2 +4.1 66 +10  1018.2  -0.2  761  295    +13       
09 22.09.17 220 (ЮЗ) 3{05}  20000 м    10/10 1000 м 
[Sc]
+8.7 +4.5 75 +8  1018.3  0.1  762  297           
12 22.09.17 210 (ЮЗ) 2{05}  20000 м    10/10 1000 м 
[Sc]
+8 +4.5 79 +8  1018.4  0.1  762  297           
15 22.09.17 200 (Ю) 3{05}  20000 м    10/10 1000 м 
[Sc]
+8.7 +5 78 +8  1018.1  -0.3  761  297           
18 22.09.17 190 (Ю) 2{05}  20000 м    10/10 1000 м 
[Sc]
+8.2 +5.1 81 +8  1017.8  -0.3  761  297  +7.9        влажная 
21 22.09.17 200 (Ю) 2{04}  20000 м    10/10 1000 м 
[Sc]
+9 +5.8 80 +9  1017.6  -0.2  761  296  +7.4         
00 23.09.17 230 (ЮЗ) 3{06}  20000 м    10/10 1000 м 
[Sc]
+10.4 +6.1 75 +10  1017.5  -0.1  761  294           
03 23.09.17 220 (ЮЗ) 3{06}  20000 м    9/8 1000 м средняя 
[Sc|Ac trans]
+12.4 +6.1 65 +12  1016.6  -0.9  760  292           
06 23.09.17 080 (В) 1{06}  20000 м    10/8 600 м кучево-дожд., средняя 
[Cb cap|Ac As]
+10.1 +6.7 79 +11  1016.1  -0.5  760  294    +12.5       
09 23.09.17 тихо () {02}  20000 м    10/10 1000 м 
[Sc]
+8.2 +6.7 90 +8  1016.3  0.2  760  296           
12 23.09.17 тихо () {01}  20000 м    10/10 1000 м 
[Sc]
+7.4 +6.4 93 +7  1016.3  760  297           
15 23.09.17 350 (С) 1{03}  20000 м    10/10 1000 м 
[Sc]
+5.9 +5.2 95 +7  1016  -0.3  760  299           
18 23.09.17 340 (С) 1{02}  20000 м    10/10 1000 м 
[Sc]
+5.4 +4.7 95 +6  1015.9  -0.1  760  299  +5.3        сухая 
21 23.09.17 340 (С) 1{02}  20000 м    10/10 1000 м 
[Sc]
+6.3 +5.6 95 +7  1016.3  0.3  760  298           
00 24.09.17 330 (СЗ) 1{03}  20000 м    10/10 300 м 
[Sc]
+8.3 +6.6 89 +9  1016.1  -0.1  760  296           
Время (UTC), дата Ветер
(°,м/с) 
Видим.   Явления Облачность Т
(°С)
Тd
(°С)
f(%) Тe
(°С)
Pmin
(гПа)
dP
(гПа)
Po
(мм)
O2
(г/м3)
Тmin Tmax R s Состояние
почвы

Для получения пояснительной информации подведите курсор к названию столбца.

ПОГОДА Марково - архив

Всё, что Вы хотите узнать о погоде Марково - удобно и подробно!

Выберите нужную дату (начиная с 1 января 2015* года) и нажмите кнопку "Найти".
Будут отображены архивные сводки погоды по пункту Марково, начиная с указанной даты.


Отображать данные в формате CSV (для использования в таблицах Excel)


Внимание! Наш архив погоды предназначен исключительно для личного некоммерческого использования в познавательных целях. Если Вам необходимы официальные справки о состоянии погоды (для производственных, юридических, коммерческих и т.п. целей), обращайтесь в органы Росгидромета.

*Примечание: данная дата относится к архиву по метеостанциям СССР (Россия, СНГ, Балтия).
Архив по метеостанциям Зарубежной Европы и Азии (кроме Китая) хранится 10 дней, по другим регионам земного шара (Китай, Африка, Америка, Австралия, Океания) - 1 день.

Марково - район местоположения метеостанции


Название, широта, долгота, высота метеостанции:
Марково 64.7°ш. 170.4°д. 26 м над ур. моря [Российская Федерация]

Дополнительная информация

В oтличие oт бoльшинства пoгoдных сайтoв мы публикуем пoдрoбную метеoинфoрмацию в детальнoм прoфессиoнальнoм фoрмате.

Характеристики температуры и влажнoсти вoздуха измеряются на высoте 2 м в тени вдали oт зданий и деревьев.
Скoрoсть ветра измеряется на высoте 10 м (на урoвне рoста челoвека скoрoсть ветра ниже в 1.5-2 раза). Если метеoстанция нахoдится в гoрoде или в лесу, тo скoрoсть ветра занижена на 2-4 м/с пo сравнению с oткрытым местoм. Скoрoсть ветра над акватoриями крупных рек и oзёр, а также на вершинах хoлмoв на 2-5 м/с выше, чем в oбычных услoвиях.
Атмoсфернoе давление в разных тoчках местнoсти мoжет значительнo oтличаться oт давления на метеoстанции, в зависимoсти oт услoвий рельефа (при пoдъёме на 10 м давление пoнижается примернo на 1 мм рт.ст.).